Date String (YYYY-MM-DD hh:mm:ss) UTC,Instrument flags,Ambient pressure (hPa),Sample flow (lpm),Bypass flow (lpm),Sample temperature (°C),Ambient temperature (°C),ASC tube jacket temperature (°C),LED temperature (°C),Box temperature (°C),Sample RH (%),Span deviation,Mass concentration (μg/m³),Mass concentration (μg/m³),Mass concentration (μg/m³)
DateTimeUTC,F1_M11,P_M11,Q1_M11,Q2_M11,T1_M11,T2_M11,T3_M11,T4_M11,T5_M11,U1_M11,ZSPAN_M11,X2_M11,X0_M11,X1_M11
2022-11-07 18:00:00,,0825.4,4.99,0.00,25.0,23.9,00.0,33.7,26.9,13.5,0000.0,0004.03,0016.71,0002.45
2022-11-07 18:01:00,,0825.3,4.99,0.00,25.0,23.9,00.0,33.7,26.9,13.4,0000.0,0004.03,0017.22,0002.45
2022-11-07 18:02:00,,0825.2,5.00,0.00,25.0,23.9,00.0,33.7,26.9,13.4,0000.0,0004.04,0017.80,0002.47
2022-11-07 18:03:00,,0825.3,5.00,0.00,25.0,23.9,00.0,33.7,27.0,13.5,0000.0,0004.08,0018.17,0002.49
2022-11-07 18:04:00,,0825.3,5.01,0.00,25.0,24.0,00.0,33.7,27.0,13.5,0000.0,0004.13,0018.47,0002.52
2022-11-07 18:05:00,,0825.2,5.00,0.00,25.1,24.0,00.0,33.7,27.0,13.5,0000.0,0004.15,0018.68,0002.54
2022-11-07 18:06:00,,0825.2,5.00,0.00,25.1,24.0,00.0,33.7,27.0,13.6,0000.0,0004.14,0018.19,0002.53
2022-11-07 18:07:00,,0825.3,4.99,0.00,25.1,24.1,00.0,33.8,27.0,13.6,0000.0,0004.12,0017.51,0002.54
2022-11-07 18:08:00,,0825.3,4.99,0.00,25.1,24.0,00.0,33.8,27.1,13.4,0000.0,0004.14,0017.88,0002.56
2022-11-07 18:09:00,,0825.1,5.01,0.00,25.1,24.1,00.0,33.8,27.1,13.6,0000.0,0004.14,0017.72,0002.57
2022-11-07 18:10:00,,0825.1,5.00,0.00,25.2,24.1,00.0,33.8,27.1,13.5,0000.0,0004.13,0016.84,0002.59
2022-11-07 18:11:00,,0825.2,5.00,0.00,25.2,24.1,00.0,33.8,27.1,13.4,0000.0,0004.11,0015.07,0002.60
2022-11-07 18:12:00,,0825.2,4.99,0.00,25.2,24.1,00.0,33.8,27.1,13.4,0000.0,0004.14,0014.20,0002.61
2022-11-07 18:13:00,,0825.2,4.99,0.00,25.2,24.1,00.0,33.9,27.1,13.4,0000.0,0004.14,0013.81,0002.61
2022-11-07 18:14:00,,0825.0,5.00,0.00,25.2,24.1,00.0,33.9,27.1,13.4,0000.0,0004.13,0013.59,0002.62
2022-11-07 18:15:00,,0824.9,5.00,0.00,25.2,24.1,00.0,33.9,27.1,13.3,0000.0,0004.10,0013.03,0002.65
2022-11-07 18:16:00,,0825.0,5.00,0.00,25.2,24.1,00.0,33.9,27.1,13.3,0000.0,0004.07,0013.00,0002.67
2022-11-07 18:17:00,,0825.1,5.00,0.00,25.2,24.1,00.0,33.9,27.1,13.4,0000.0,0004.06,0012.65,0002.69
2022-11-07 18:18:00,,0825.1,5.00,0.00,25.2,24.1,00.0,33.9,27.1,13.4,0000.0,0004.02,0012.49,0002.68
2022-11-07 18:19:00,,0825.0,5.01,0.00,25.2,24.1,00.0,33.9,27.1,13.6,0000.0,0004.04,0011.46,0002.68
2022-11-07 18:20:00,,0824.9,5.00,0.00,25.2,24.1,00.0,33.9,27.1,13.5,0000.0,0004.03,0011.65,0002.69
2022-11-07 18:21:00,,0825.0,4.99,0.00,25.2,24.1,00.0,34.0,27.1,13.5,0000.0,0004.04,0012.32,0002.69
2022-11-07 18:22:00,,0824.9,5.00,0.00,25.3,24.1,00.0,34.0,27.2,13.6,0000.0,0004.03,0013.34,0002.68
2022-11-07 18:23:00,,0824.9,5.01,0.00,25.3,24.1,00.0,34.0,27.2,13.5,0000.0,0003.98,0013.89,0002.68
2022-11-07 18:24:00,,0824.9,4.98,0.00,25.3,24.1,00.0,34.0,27.2,13.4,0000.0,0003.97,0014.44,0002.69
2022-11-07 18:25:00,,0824.9,5.02,0.00,25.3,24.1,00.0,34.0,27.2,13.4,0000.0,0004.00,0014.86,0002.69
2022-11-07 18:26:00,,0824.9,5.00,0.00,25.3,24.1,00.0,34.0,27.2,13.4,0000.0,0004.05,0016.66,0002.66
2022-11-07 18:27:00,,0824.8,4.99,0.00,25.3,24.1,00.0,34.0,27.2,13.6,0000.0,0004.06,0017.48,0002.64
2022-11-07 18:28:00,,0824.8,5.01,0.00,25.3,24.2,00.0,34.0,27.3,13.6,0000.0,0004.07,0017.36,0002.63
2022-11-07 18:29:00,,0824.8,5.00,0.00,25.3,24.2,00.0,34.0,27.3,13.3,0000.0,0004.10,0019.05,0002.64
2022-11-07 18:30:00,,0824.9,5.01,0.00,25.3,24.2,00.0,34.1,27.3,13.5,0000.0,0004.07,0020.13,0002.64
2022-11-07 18:31:00,,0824.9,4.97,0.00,25.4,24.2,00.0,34.1,27.3,13.3,0000.0,0004.07,0020.03,0002.64
2022-11-07 18:32:00,,0824.9,5.00,0.00,25.4,24.2,00.0,34.1,27.3,13.2,0000.0,0004.07,0019.52,0002.64
2022-11-07 18:33:00,,0824.9,5.01,0.00,25.4,24.2,00.0,34.1,27.3,13.4,0000.0,0004.09,0019.02,0002.64
2022-11-07 18:34:00,,0824.8,4.99,0.00,25.4,24.2,00.0,34.1,27.3,13.3,0000.0,0004.09,0018.45,0002.65
2022-11-07 18:35:00,,0824.7,5.00,0.00,25.4,24.2,00.0,34.1,27.3,13.2,0000.0,0004.11,0018.01,0002.66
2022-11-07 18:36:00,,0824.7,5.01,0.00,25.4,24.3,00.0,34.1,27.3,13.2,0000.0,0004.07,0018.34,0002.67
2022-11-07 18:37:00,,0824.6,4.99,0.00,25.4,24.3,00.0,34.1,27.3,13.1,0000.0,0004.01,0018.00,0002.69
2022-11-07 18:38:00,,0824.7,5.00,0.00,25.4,24.3,00.0,34.1,27.4,13.1,0000.0,0003.98,0017.91,0002.70
2022-11-07 18:39:00,,0824.7,5.01,0.00,25.5,24.3,00.0,34.1,27.4,13.0,0000.0,0003.96,0018.81,0002.73
2022-11-07 18:40:00,,0824.6,4.99,0.00,25.5,24.4,00.0,34.2,27.4,13.2,0000.0,0003.95,0017.52,0002.73
2022-11-07 18:41:00,,0824.6,5.01,0.00,25.5,24.4,00.0,34.2,27.4,13.3,0000.0,0004.00,0017.65,0002.74
2022-11-07 18:42:00,,0824.6,5.00,0.00,25.5,24.4,00.0,34.2,27.5,13.1,0000.0,0004.02,0017.85,0002.75
2022-11-07 18:43:00,,0824.5,4.99,0.00,25.5,24.4,00.0,34.2,27.5,13.2,0000.0,0004.03,0018.18,0002.77
2022-11-07 18:44:00,,0824.5,5.00,0.00,25.5,24.5,00.0,34.2,27.5,13.2,0000.0,0004.02,0018.06,0002.80
2022-11-07 18:45:00,,0824.4,5.00,0.00,25.6,24.5,00.0,34.2,27.5,13.2,0000.0,0004.03,0019.55,0002.80
2022-11-07 18:46:00,,0824.4,4.99,0.00,25.6,24.5,00.0,34.2,27.5,13.2,0000.0,0004.02,0018.91,0002.80
2022-11-07 18:47:00,,0824.5,5.01,0.00,25.6,24.5,00.0,34.3,27.5,13.4,0000.0,0004.03,0017.65,0002.81
2022-11-07 18:48:00,,0824.5,5.00,0.00,25.6,24.5,00.0,34.3,27.5,13.2,0000.0,0004.10,0016.62,0002.81
2022-11-07 18:49:00,,0824.5,4.99,0.00,25.6,24.5,00.0,34.3,27.6,13.3,0000.0,0004.15,0016.17,0002.82
2022-11-07 18:50:00,,0824.4,5.02,0.00,25.6,24.6,00.0,34.3,27.6,13.2,0000.0,0004.18,0015.38,0002.83
2022-11-07 18:51:00,,0824.4,4.99,0.00,25.7,24.6,00.0,34.3,27.6,13.2,0000.0,0004.21,0015.55,0002.86
2022-11-07 18:52:00,,0824.4,4.99,0.00,25.7,24.6,00.0,34.3,27.6,13.1,0000.0,0004.21,0014.51,0002.90
2022-11-07 18:53:00,,0824.4,5.00,0.00,25.7,24.6,00.0,34.4,27.7,13.2,0000.0,0004.22,0014.35,0002.93
2022-11-07 18:54:00,,0824.3,5.00,0.00,25.7,24.6,00.0,34.4,27.6,13.2,0000.0,0004.26,0014.47,0002.95
2022-11-07 18:55:00,,0824.3,4.99,0.00,25.7,24.6,00.0,34.4,27.7,13.2,0000.0,0004.28,0014.16,0002.95
2022-11-07 18:56:00,,0824.2,5.00,0.00,25.7,24.7,00.0,34.4,27.7,13.2,0000.0,0004.31,0012.65,0002.98
2022-11-07 18:57:00,,0824.2,5.01,0.00,25.8,24.7,00.0,34.4,27.7,13.2,0000.0,0004.32,0012.89,0003.01
2022-11-07 18:58:00,,0824.2,4.99,0.00,25.8,24.7,00.0,34.4,27.7,13.1,0000.0,0004.34,0013.78,0003.03
2022-11-07 18:59:00,,0824.3,5.00,0.00,25.8,24.7,00.0,34.5,27.7,13.1,0000.0,0004.36,0013.82,0003.04
